Stündliche Wetter Centralnoe

Heute, 24 Januar, Sonntag

Zeit Temperatur Niederschläge Wind Luftdruck Luftfeuchtigkeit
00:00 -10°C° 0 mm 1 m/S 758 mmHg 72%
01:00 -10°C° 0 mm 1 m/S 758 mmHg 73%
02:00 -10°C° 0 mm 1 m/S 758 mmHg 74%
03:00 -10°C° 0 mm 1 m/S 757 mmHg 75%
04:00 -10°C° 0 mm 1 m/S 757 mmHg 77%
05:00 -10°C° 0 mm 1 m/S 757 mmHg 78%
06:00 -10°C° 0 mm 1 m/S 757 mmHg 80%
07:00 -9°C° 0 mm 0 m/S 758 mmHg 60%
08:00 -8°C° 0 mm 0 m/S 758 mmHg 56%
09:00 -7°C° 0 mm 0 m/S 758 mmHg 52%
10:00 -4°C° 0 mm 0 m/S 758 mmHg 50%
11:00 -2°C° 0 mm 0 m/S 758 mmHg 49%
12:00 0°C° 0 mm 0 m/S 758 mmHg 47%
13:00 0°C° 0 mm 0 m/S 758 mmHg 50%
14:00 0°C° 0 mm 0 m/S 758 mmHg 54%
15:00 +1°C° 0 mm 0 m/S 758 mmHg 57%
16:00 -1°C° 0 mm 0 m/S 758 mmHg 64%
17:00 -3°C° 0 mm 0 m/S 758 mmHg 71%
18:00 -5°C° 0 mm 0 m/S 758 mmHg 78%
19:00 -5°C° 0 mm 0 m/S 758 mmHg 76%
20:00 -6°C° 0 mm 0 m/S 759 mmHg 73%
21:00 -6°C° 0 mm 0 m/S 759 mmHg 71%
22:00 -6°C° 0 mm 0 m/S 759 mmHg 70%
23:00 -6°C° 0 mm 0 m/S 759 mmHg 69%

Morgen, 25 Januar, Montag

Zeit Temperatur Niederschläge Wind Luftdruck Luftfeuchtigkeit
00:00 -6°C° 0 mm 0 m/S 759 mmHg 68%
01:00 -6°C° 0 mm 0 m/S 759 mmHg 66%
02:00 -6°C° 0 mm 0 m/S 759 mmHg 64%
03:00 -6°C° 0 mm 0 m/S 759 mmHg 62%
04:00 -6°C° 0 mm 0 m/S 759 mmHg 61%
05:00 -6°C° 0 mm 0 m/S 759 mmHg 61%
06:00 -6°C° 0 mm 0 m/S 759 mmHg 60%
07:00 -5°C° 0 mm 0 m/S 759 mmHg 59%
08:00 -4°C° 0 mm 0 m/S 760 mmHg 57%
09:00 -3°C° 0 mm 0 m/S 760 mmHg 56%
10:00 -1°C° 0 mm 0 m/S 760 mmHg 54%
11:00 +1°C° 0 mm 0 m/S 759 mmHg 52%
12:00 +3°C° 0 mm 0 m/S 759 mmHg 49%
13:00 +4°C° 0 mm 1 m/S 759 mmHg 52%
14:00 +4°C° 0 mm 1 m/S 758 mmHg 55%
15:00 +4°C° 0 mm 1 m/S 758 mmHg 58%
16:00 +2°C° 0 mm 1 m/S 758 mmHg 64%
17:00 0°C° 0 mm 1 m/S 757 mmHg 71%
18:00 -2°C° 0 mm 1 m/S 757 mmHg 78%
19:00 -2°C° 0 mm 1 m/S 757 mmHg 81%
20:00 -5°C° 0 mm 2 m/S 757 mmHg 85%
21:00 -5°C° 0 mm 2 m/S 757 mmHg 89%
22:00 -4°C° 0 mm 2 m/S 756 mmHg 91%
23:00 -4°C° 0 mm 2 m/S 756 mmHg 93%

übermorgen, 26 Januar, Dienstag

Zeit Temperatur Niederschläge Wind Luftdruck Luftfeuchtigkeit
00:00 -3°C° 0 mm 2 m/S 756 mmHg 95%
01:00 -3°C° 0 mm 2 m/S 755 mmHg 95%
02:00 -2°C° 0 mm 3 m/S 755 mmHg 95%
03:00 -2°C° 0 mm 3 m/S 755 mmHg 95%
04:00 -2°C° 0.8 mm 2 m/S 754 mmHg 96%
05:00 -1°C° 0.8 mm 2 m/S 753 mmHg 97%
06:00 -1°C° 0.8 mm 2 m/S 752 mmHg 97%
07:00 -1°C° 1.9 mm 2 m/S 752 mmHg 97%
08:00 -1°C° 1.9 mm 2 m/S 752 mmHg 97%
09:00 +1°C° 1.9 mm 1 m/S 751 mmHg 98%
10:00 +2°C° 1.7 mm 1 m/S 751 mmHg 98%
11:00 +2°C° 1.7 mm 1 m/S 750 mmHg 98%
12:00 +2°C° 1.7 mm 1 m/S 749 mmHg 98%
13:00 +2°C° 0.9 mm 1 m/S 749 mmHg 98%
14:00 +3°C° 0.9 mm 1 m/S 749 mmHg 98%
15:00 +2°C° 0.9 mm 0 m/S 748 mmHg 98%
16:00 +1°C° 0 mm 0 m/S 749 mmHg 98%
17:00 0°C° 0 mm 0 m/S 749 mmHg 97%
18:00 -1°C° 0 mm 0 m/S 749 mmHg 97%
19:00 -1°C° 0 mm 1 m/S 749 mmHg 93%
20:00 -2°C° 0 mm 1 m/S 749 mmHg 89%
21:00 -6°C° 0 mm 2 m/S 750 mmHg 85%
22:00 -7°C° 0 mm 2 m/S 750 mmHg 84%
23:00 -8°C° 0 mm 2 m/S 750 mmHg 83%

27 Januar, Mittwoch

Zeit Temperatur Niederschläge Wind Luftdruck Luftfeuchtigkeit
00:00 -9°C° 0 mm 2 m/S 751 mmHg 82%
01:00 -10°C° 0 mm 2 m/S 751 mmHg 82%
02:00 -12°C° 0 mm 2 m/S 751 mmHg 83%
03:00 -12°C° 0 mm 2 m/S 751 mmHg 84%
04:00 -13°C° 0 mm 2 m/S 751 mmHg 83%
05:00 -14°C° 0 mm 2 m/S 752 mmHg 81%
06:00 -14°C° 0 mm 2 m/S 752 mmHg 80%
07:00 -14°C° 0 mm 2 m/S 752 mmHg 77%
08:00 -13°C° 0 mm 2 m/S 753 mmHg 73%
09:00 -12°C° 0 mm 2 m/S 753 mmHg 69%
10:00 -12°C° 0 mm 3 m/S 753 mmHg 65%
11:00 -11°C° 0 mm 4 m/S 753 mmHg 60%
12:00 -10°C° 0 mm 4 m/S 753 mmHg 55%
13:00 -11°C° 0 mm 5 m/S 753 mmHg 55%
14:00 -11°C° 0 mm 5 m/S 753 mmHg 54%
15:00 -10°C° 0 mm 5 m/S 752 mmHg 54%
16:00 -11°C° 0 mm 4 m/S 753 mmHg 60%
17:00 -12°C° 0 mm 3 m/S 753 mmHg 65%
18:00 -13°C° 0 mm 2 m/S 754 mmHg 71%
19:00 -14°C° 0 mm 2 m/S 754 mmHg 74%
20:00 -15°C° 0 mm 2 m/S 754 mmHg 77%
21:00 -16°C° 0 mm 2 m/S 755 mmHg 79%
22:00 -16°C° 0 mm 2 m/S 755 mmHg 81%
23:00 -17°C° 0 mm 2 m/S 755 mmHg 82%

28 Januar, Donnerstag

Zeit Temperatur Niederschläge Wind Luftdruck Luftfeuchtigkeit
00:00 -15°C° 0 mm 1 m/S 755 mmHg 83%
01:00 -16°C° 0 mm 1 m/S 755 mmHg 84%
02:00 -16°C° 0 mm 1 m/S 755 mmHg 85%
03:00 -17°C° 0 mm 1 m/S 755 mmHg 86%
04:00 -17°C° 0 mm 1 m/S 755 mmHg 87%
05:00 -17°C° 0 mm 1 m/S 755 mmHg 88%
06:00 -18°C° 0 mm 1 m/S 755 mmHg 88%
07:00 -17°C° 0 mm 1 m/S 756 mmHg 85%
08:00 -16°C° 0 mm 1 m/S 756 mmHg 81%
09:00 -16°C° 0 mm 1 m/S 756 mmHg 77%
10:00 -14°C° 0 mm 1 m/S 756 mmHg 73%
11:00 -15°C° 0 mm 2 m/S 756 mmHg 69%
12:00 -15°C° 0 mm 3 m/S 756 mmHg 65%
13:00 -15°C° 0 mm 3 m/S 755 mmHg 65%
14:00 -15°C° 0 mm 3 m/S 755 mmHg 64%
15:00 -15°C° 0 mm 3 m/S 754 mmHg 63%
16:00 -15°C° 0 mm 2 m/S 755 mmHg 70%
17:00 -17°C° 0 mm 2 m/S 755 mmHg 76%
18:00 -18°C° 0 mm 2 m/S 755 mmHg 82%
19:00 -19°C° 0 mm 2 m/S 755 mmHg 81%
20:00 -19°C° 0 mm 2 m/S 755 mmHg 80%
21:00 -20°C° 0 mm 2 m/S 755 mmHg 79%
22:00 -20°C° 0 mm 2 m/S 755 mmHg 78%
23:00 -21°C° 0 mm 2 m/S 755 mmHg 78%

29 Januar, Freitag

Zeit Temperatur Niederschläge Wind Luftdruck Luftfeuchtigkeit
00:00 -21°C° 0 mm 2 m/S 755 mmHg 77%
01:00 -21°C° 0 mm 2 m/S 755 mmHg 78%
02:00 -23°C° 0 mm 2 m/S 755 mmHg 79%
03:00 -23°C° 0 mm 2 m/S 755 mmHg 80%
Mehr zeigen

Wir brauchen deine Erlaubnis

Meteoprog und unser Service Anbieter werden persönliche Daten aufbewahren, so wie Cookies, Geräte Bezeichnung oder ähnliche Technologien von deinem Gerät und Prozess, so wie Persönliche Daten Inhalte und Werbungen, genauso wie social Media und den Verkehr zu analysieren.

  • Aufbewahrung und/oder Zugang zu deiner Geräte Informationen.

    Cookies, Geräte Bezeichnung oder andere Informationen, können aufbewahrt oder Zugang zu deinem Gerät erhalten, für den Grund, der oben angegeben wird.

  • Personalisierte Werbung und Inhalte, Messungen, Einblick in das Publikum und Produkt Entwicklung.

    Werbungen und Inhalte können personalisiert werden, basierend auf ein Profil. Mehr Daten können besser personalisierte Werbungen und Inhalte hinzufügen. Werbung und Inhalte können gezeigt und gemessen werden. Einblicke über das Publikum, welche die Werbung gesehen haben und den Inhalt, können abgeleitet werden. So wie Daten können genutzt werden, um es zu verbessern oder die Benutzer Erfahrung zu verbessern das System und die Software.

Wenn du “Ich stimme zu” klickst, erlaubst du uns, die Cookies zu benutzen die Geräte Bezeichnung, den Web oder ähnliche Technologien zu benutzen. Deine Settings, können in deinem Gerät bei deinem Browser geändert werden.

Für den bestimmten Zweck, berechtigten Interessen beruhen darauf, mehr als auf den Inhalt. Du kannst mehr darüber in unseren Privaten und Cookie Politik lesen.